N360K KELP-KTUS

Flight info

Callsign N360K
Flight time N/A
Altitude 24000
Route HANCH V16 CUS T306 NOCHI TUS081032 TUS
Aircraft BE20/L-SBGRY/S

Departure

Time 2026-04-28 17:18
Airport El Paso International Airport (KELP)

Arrival

Time N/A
Airport Tucson International Airport (KTUS)
Time Latitude Longitude Altitude Speed Heading
2026-04-28 17:05 31.79747 -106.37480 3943 ft 0 kts 261°
2026-04-28 17:11 31.79747 -106.37483 3943 ft 4 kts 261°
2026-04-28 17:12 31.79795 -106.37525 3943 ft 14 kts
2026-04-28 17:12 31.79870 -106.37499 3943 ft 9 kts 69°
2026-04-28 17:12 31.79892 -106.37424 3943 ft 10 kts 89°
2026-04-28 17:12 31.79890 -106.37337 3943 ft 11 kts 92°
2026-04-28 17:13 31.79901 -106.37253 3943 ft 8 kts 39°
2026-04-28 17:13 31.79943 -106.37213 3943 ft 8 kts 57°
2026-04-28 17:13 31.79956 -106.37148 3943 ft 9 kts 94°
2026-04-28 17:13 31.79951 -106.37073 3943 ft 10 kts 95°
2026-04-28 17:14 31.79945 -106.36990 3943 ft 11 kts 94°
2026-04-28 17:14 31.79940 -106.36900 3943 ft 11 kts 92°
2026-04-28 17:14 31.79935 -106.36804 3943 ft 12 kts 94°
2026-04-28 17:14 31.79930 -106.36706 3943 ft 12 kts 94°
2026-04-28 17:15 31.79924 -106.36601 3943 ft 13 kts 90°
2026-04-28 17:15 31.79923 -106.36495 3943 ft 13 kts 97°
2026-04-28 17:15 31.79918 -106.36386 3943 ft 13 kts 90°
2026-04-28 17:15 31.79966 -106.36319 3943 ft 12 kts
2026-04-28 17:16 31.80052 -106.36319 3943 ft 12 kts 339°
2026-04-28 17:16 31.80085 -106.36373 3944 ft 0 kts 272°
2026-04-28 17:17 31.80085 -106.36393 3944 ft 22 kts 270°
2026-04-28 17:17 31.80107 -106.36919 3942 ft 99 kts 275°
2026-04-28 17:17 31.80151 -106.37880 4026 ft 130 kts 272°
2026-04-28 17:18 31.80203 -106.39012 4354 ft 144 kts 274°
2026-04-28 17:18 31.80472 -106.40231 4653 ft 159 kts 298°
2026-04-28 17:18 31.81323 -106.41043 5165 ft 153 kts 341°
2026-04-28 17:18 31.82312 -106.41426 5722 ft 151 kts 339°
2026-04-28 17:19 31.83320 -106.41875 6359 ft 155 kts 337°
2026-04-28 17:19 31.84290 -106.42355 7037 ft 154 kts 328°
2026-04-28 17:19 31.84964 -106.43291 7716 ft 152 kts 286°
2026-04-28 17:19 31.84949 -106.44512 8368 ft 152 kts 253°
2026-04-28 17:20 31.84922 -106.45787 8911 ft 163 kts 280°
2026-04-28 17:20 31.85035 -106.46695 9234 ft 171 kts 274°
2026-04-28 17:20 31.85127 -106.48620 9872 ft 184 kts 274°
2026-04-28 17:20 31.85245 -106.50162 10374 ft 192 kts 275°
2026-04-28 17:21 31.85375 -106.51749 10853 ft 199 kts 274°
2026-04-28 17:21 31.85497 -106.53399 11345 ft 203 kts 274°
2026-04-28 17:21 31.85623 -106.55052 11827 ft 207 kts 274°